Date,TemperatureHighF,TemperatureAvgF,TemperatureLowF,DewpointHighF,DewpointAvgF,DewpointLowF,HumidityHigh,HumidityAvg,HumidityLow,PressureMaxIn,PressureMinIn,WindSpeedMaxMPH,WindSpeedAvgMPH,GustSpeedMaxMPH,PrecipitationSumIn
2013-3-1,32.0,27.5,25.2,31.0,24.0,21.0,95,86,81,30.25,30.09,16,9,20,0.01
2013-3-2,30.3,24.1,15.7,21.0,17.2,12.0,85,75,60,30.28,30.22,13,6,18,0.01
2013-3-3,36.9,23.0,10.7,21.0,14.8,8.0,91,73,45,30.24,30.10,6,1,9,0.09
2013-3-4,41.8,33.2,27.3,33.0,26.8,18.0,93,78,64,30.11,29.90,21,6,23,0.29
2013-3-5,34.5,31.9,27.9,32.0,29.7,25.0,96,91,84,30.12,29.86,21,7,27,0.07
2013-3-6,30.9,27.5,23.6,26.0,23.2,20.0,88,83,78,30.38,30.13,20,8,31,0.01
2013-3-7,42.2,31.1,25.4,30.0,25.3,22.0,88,80,62,30.45,30.37,11,2,14,0.02
2013-3-8,49.0,36.1,23.7,37.0,30.1,22.0,92,80,61,30.45,30.24,18,5,20,0.00
2013-3-9,50.6,42.6,37.5,44.0,37.8,32.0,94,83,76,30.23,29.77,15,8,21,0.15
2013-3-10,52.1,48.2,44.5,51.0,46.9,43.0,97,95,85,29.81,29.56,15,4,22,0.68
2013-3-11,45.9,35.8,30.7,45.0,33.7,26.0,97,92,83,29.93,29.61,21,10,32,0.03
2013-3-12,39.1,31.3,26.1,33.0,26.4,21.0,91,82,67,30.16,29.92,21,10,31,0.01
2013-3-13,37.7,29.3,23.2,23.0,20.3,17.0,85,71,44,30.39,30.16,16,8,28,0.00
2013-3-14,49.7,36.3,25.3,33.0,27.9,21.0,88,73,51,30.39,30.08,21,5,25,0.00
2013-3-15,54.6,41.9,30.2,41.0,35.5,28.0,93,79,57,30.08,29.68,9,2,11,0.00
2013-3-16,42.0,36.3,32.0,40.0,32.2,28.0,96,85,71,30.13,29.66,18,7,23,0.00
2013-3-17,40.8,34.2,29.0,29.0,26.8,23.0,87,75,60,30.19,29.91,12,5,19,0.00
2013-3-18,41.1,33.1,26.1,35.0,28.7,17.0,94,84,68,29.96,29.70,20,8,34,0.03
2013-3-19,40.8,28.6,20.2,21.0,15.5,11.0,73,60,36,30.18,29.94,26,10,32,0.00
2013-3-20,29.8,24.0,16.7,21.0,11.8,7.0,76,61,44,30.24,30.13,26,10,32,0.00
2013-3-21,39.9,25.2,13.4,15.0,11.2,9.0,82,59,34,30.16,30.04,17,3,20,0.00
2013-3-22,47.6,33.1,17.6,25.0,18.4,14.0,88,59,30,30.11,30.01,8,1,11,0.00
2013-3-23,51.6,39.1,28.7,28.0,25.1,23.0,83,59,36,30.12,29.97,10,3,18,0.00
2013-3-24,32.4,30.7,29.4,31.0,29.5,28.0,97,95,84,30.00,29.68,21,10,25,0.03
2013-3-25,36.5,32.1,28.5,29.0,27.4,25.0,96,83,70,30.16,29.81,21,11,27,0.15
2013-3-26,39.0,34.4,28.7,30.0,27.3,25.0,85,76,63,30.32,30.16,17,5,18,0.02
2013-3-27,46.2,37.5,30.8,29.0,26.4,23.0,84,66,45,30.39,30.32,9,3,12,0.00
2013-3-28,56.0,41.2,25.3,33.0,29.4,23.0,91,65,40,30.39,30.29,9,2,13,0.00
2013-3-29,63.9,47.4,34.4,35.0,32.1,30.0,87,59,29,30.32,30.21,9,1,10,0.00
2013-3-30,56.9,47.3,33.7,44.0,38.5,30.0,89,72,55,30.22,29.88,15,5,24,0.00
2013-3-31,60.1,50.2,39.5,46.0,39.0,25.0,93,69,32,29.96,29.80,19,8,29,0.00